CW6888 Weather Reports


time (UTC)temp
F
wind
direction
speed
knots
gust
knots
rain 1hr
in
rain 24hr
in
rain mn
in
humidity
%
barometer
mb
20260505035824 62 161 2.6 4.3 0.00 0.00 0.00 62 1010.8
20260505034815 62 178 1.7 3.5 0.00 0.00 0.00 62 1010.7
20260505033826 62 175 1.7 3.5 0.00 0.00 0.00 62 1010.7
20260505032838 62 180 1.7 3.5 0.00 0.00 0.00 62 1010.7
20260505031829 62 180 1.7 2.6 0.00 0.00 0.00 62 1010.7
20260505030822 62 178 1.7 2.6 0.00 0.00 0.00 62 1010.8
20260505025826 62 178 1.7 2.6 0.00 0.00 0.00 63 1010.8
20260505024817 62 178 0.9 3.5 0.00 0.00 0.00 63 1010.9
20260505023828 61 178 1.7 3.5 0.00 0.00 0.00 64 1010.9
20260505022840 61 177 1.7 2.6 0.00 0.00 0.00 64 1010.8
20260505021832 61 178 1.7 2.6 0.00 0.00 0.00 63 1010.8
20260505020846 61 179 1.7 3.5 0.00 0.00 0.00 63 1010.8
20260505015826 61 180 1.7 3.5 0.00 0.00 0.00 63 1010.9
20260505014819 61 180 1.7 2.6 0.00 0.00 0.00 61 1010.9
20260505013831 62 181 1.7 2.6 0.00 0.00 0.00 60 1011.0
20260505012815 63 181 1.7 3.5 0.00 0.00 0.00 59 1010.9
20260505011827 63 182 2.6 3.5 0.00 0.00 0.00 58 1010.7
20260505010850 63 182 1.7 4.3 0.00 0.00 0.00 57 1010.5
20260505005817 63 182 2.6 4.3 0.00 0.00 0.00 57 1010.4
20260505004828 64 178 2.6 4.3 0.00 0.00 0.00 57 1010.4
20260505003840 64 179 2.6 4.3 0.00 0.00 0.00 56 1010.4
20260505002822 64 176 2.6 4.3 0.00 0.00 0.00 56 1010.4
20260505001815 65 178 2.6 5.2 0.00 0.00 0.00 55 1010.3
20260505000828 65 186 3.5 4.3 0.00 0.00 0.00 55 1010.4
20260504235834 65 178 3.5 5.2 0.00 0.00 0.00 54 1010.2
20260504234834 66 171 3.5 5.2 0.00 0.00 0.00 54 1010.2
20260504233818 66 176 2.6 5.2 0.00 0.00 0.00 53 1010.2
20260504232830 67 178 3.5 5.2 0.00 0.00 0.00 52 1010.2
20260504231821 68 175 3.5 6.1 0.00 0.00 0.00 51 1010.2
20260504230853 68 171 3.5 5.2 0.00 0.00 0.00 51 1010.2
20260504225817 69 165 3.5 4.3 0.00 0.00 0.00 50 1010.2
20260504224826 69 164 4.3 5.2 0.00 0.00 0.00 49 1010.2
20260504223818 70 167 3.5 5.2 0.00 0.00 0.00 49 1010.4
20260504222827 71 164 4.3 7.0 0.00 0.00 0.00 46 1010.2
20260504221821 72 162 4.3 6.1 0.00 0.00 0.00 46 1010.2
20260504220814 72 200 3.5 6.1 0.00 0.00 0.00 45 1010.2
20260504215821 73 194 1.7 4.3 0.00 0.00 0.00 43 1010.1
20260504214813 73 150 0.0 5.2 0.00 0.00 0.00 42 1010.2
20260504213828 73 139 3.5 7.0 0.00 0.00 0.00 44 1010.2
20260504212815 73 68 0.9 5.2 0.00 0.00 0.00 43 1010.2
20260504211837 73 195 1.7 6.1 0.00 0.00 0.00 43 1010.2
20260504210823 73 191 2.6 6.1 0.00 0.00 0.00 42 1010.2
20260504205838 73 234 3.5 6.1 0.00 0.00 0.00 43 1010.1
20260504204820 73 209 3.5 7.0 0.00 0.00 0.00 43 1010.2
20260504203832 73 173 2.6 6.1 0.00 0.00 0.00 44 1010.3
20260504202843 73 180 1.7 5.2 0.00 0.00 0.00 42 1010.5
20260504201814 73 194 3.5 5.2 0.00 0.00 0.00 41 1010.5
20260504200826 73 192 2.6 7.0 0.00 0.00 0.00 44 1010.7
20260504195831 73 216 2.6 9.6 0.00 0.00 0.00 43 1010.8
20260504194822 72 237 1.7 6.1 0.00 0.00 0.00 44 1010.9
20260504193815 72 190 2.6 9.6 0.00 0.00 0.00 43 1011.1
20260504192828 72 187 1.7 7.8 0.00 0.00 0.00 46 1011.3
20260504191844 72 218 3.5 8.7 0.00 0.00 0.00 43 1011.6
20260504190815 72 175 1.7 6.1 0.00 0.00 0.00 42 1011.7
20260504185822 71 161 2.6 9.6 0.00 0.00 0.00 42 1011.9
20260504184817 71 169 4.3 9.6 0.00 0.00 0.00 43 1012.0
20260504183846 71 116 3.5 8.7 0.00 0.00 0.00 44 1012.1
20260504182818 71 188 2.6 7.8 0.00 0.00 0.00 44 1012.2
20260504181816 71 216 2.6 7.0 0.00 0.00 0.00 43 1012.3
20260504180826 70 201 3.5 7.0 0.00 0.00 0.00 46 1012.3
20260504175831 70 186 2.6 7.8 0.00 0.00 0.00 44 1012.4
20260504174823 69 173 3.5 6.1 0.00 0.00 0.00 45 1012.5
20260504173835 69 191 2.6 6.1 0.00 0.00 0.00 47 1012.6
20260504172821 68 173 3.5 7.0 0.00 0.00 0.00 46 1012.7
20260504171835 68 194 2.6 8.7 0.00 0.00 0.00 45 1012.8
20260504170839 68 222 2.6 5.2 0.00 0.00 0.00 44 1013.0
20260504150817 63 123 1.7 7.0 0.00 0.00 0.00 48 1014.3
20260504140819 58 181 0.9 4.3 0.00 0.00 0.00 58 1014.7
20260504130820 53 191 1.7 4.3 0.00 0.00 0.00 65 1014.9
20260504081818 45 360 0.0 0.0 0.00 0.00 0.00 69 1015.6
20260504080830 45 360 0.0 0.0 0.00 0.00 0.00 68 1015.6
20260504045817 44 242 0.0 0.0 0.00 0.00 0.00 68 1016.0
20260504044828 44 242 0.0 0.0 0.00 0.00 0.00 67 1015.9
20260504043819 43 242 0.0 0.0 0.00 0.00 0.00 70 1015.9
20260504042830 43 242 0.0 0.0 0.00 0.00 0.00 71 1015.8
20260504041822 44 242 0.0 0.0 0.00 0.00 0.00 69 1015.9
20260504040814 44 242 0.0 0.0 0.00 0.00 0.00 68 1015.8